Wind_Speed
35 31 27 23 20 17 13 9 12 24 39 52 61 67 70 70 68 68 73 83 96 109 118 124 123 120 116 112 106 101 97 92 87 82 76 72 68 64
37 32 27 23 20 17 14 11 12 21 33 46 56 63 67 67 66 64 64 72 85 99 110 119 122 121 118 114 108 104 100 95 90 84 79 74 70 67
38 34 28 23 19 17 16 14 14 20 29 39 50 58 63 65 64 61 59 63 74 89 102 113 119 121 119 116 111 106 102 97 92 86 81 76 72 68
39 34 29 23 18 17 16 15 15 18 25 34 44 53 59 62 62 60 56 57 66 80 94 106 115 120 118 117 113 108 103 99 94 88 82 78 73 70
40 35 30 24 18 16 15 15 15 16 22 30 39 47 54 59 60 59 56 53 59 72 87 100 111 117 118 116 114 109 105 99 94 89 85 79 75 71
41 36 31 25 19 15 13 13 13 15 18 26 34 42 49 54 56 57 55 52 54 66 81 93 105 114 117 115 113 110 105 101 95 90 86 80 76 72
42 38 34 28 22 17 13 11 11 13 16 21 29 37 43 49 52 54 52 50 52 62 76 89 100 110 115 114 113 111 106 101 95 89 85 80 75 72
43 39 35 31 25 20 15 11 9 10 14 17 23 31 38 44 48 50 50 49 50 59 72 85 96 106 112 111 111 110 106 102 96 90 85 81 74 70
41 39 37 33 28 22 17 13 8 7 10 14 19 26 33 39 42 45 46 46 48 56 69 81 92 100 108 108 109 109 106 102 96 90 85 80 75 70
40 38 37 34 30 25 20 15 10 5 6 11 16 22 28 34 38 41 43 44 47 55 67 78 89 96 104 105 106 107 106 101 96 91 84 80 75 69
38 37 35 34 32 27 23 17 12 7 4 8 14 20 25 29 33 37 40 42 47 56 66 76 85 92 99 101 102 104 104 101 97 92 85 78 72 67
37 35 34 33 32 29 25 21 15 9 3 5 11 17 23 27 30 34 38 42 47 56 66 74 82 90 95 97 98 101 101 100 97 91 85 78 70 66
36 33 32 32 31 30 27 24 18 12 6 1 7 14 20 25 29 33 37 42 47 55 64 72 78 86 92 93 93 95 96 97 96 91 86 80 72 66
35 31 30 29 29 29 28 26 22 16 10 2 5 11 17 23 28 33 38 42 47 54 63 70 76 84 88 89 90 91 91 92 93 91 87 82 74 65
37 31 29 28 27 28 27 27 24 20 14 7 3 8 15 21 27 33 38 43 47 54 62 67 73 80 84 85 84 86 85 87 90 90 87 83 75 66
40 34 29 27 26 26 26 26 25 21 16 11 6 7 13 20 27 34 40 43 47 52 61 66 70 76 82 84 82 80 81 82 84 86 86 83 78 70
40 38 32 27 25 24 24 24 24 22 18 13 10 9 13 20 27 34 40 44 47 53 59 64 67 72 78 82 80 77 77 77 79 81 84 83 78 70
40 39 35 28 24 22 21 21 21 20 18 15 12 11 14 20 27 34 40 45 48 53 59 62 66 70 74 78 78 73 72 73 72 75 80 80 77 71
39 38 36 32 26 21 19 18 18 18 16 14 13 12 15 20 26 33 39 43 48 54 58 61 64 69 72 74 75 73 71 70 67 68 72 74 73 70
38 37 35 33 28 22 18 16 16 15 15 14 13 13 16 20 25 31 37 41 45 51 56 60 63 68 70 72 73 73 72 69 65 63 64 66 66 66
36 36 35 34 30 24 19 14 12 12 12 12 12 13 16 20 24 29 34 38 42 48 53 57 62 67 70 71 71 70 69 68 64 62 60 61 63 62
35 34 34 34 31 27 20 14 10 8 8 9 10 12 15 19 23 27 31 35 39 44 50 54 59 65 69 70 69 68 66 64 62 61 59 59 58 58
34 33 33 33 32 29 23 16 10 5 4 6 9 11 14 18 22 26 29 33 36 40 45 50 55 62 67 70 70 69 68 64 63 63 62 60 58 56
Wind_Direction
330 321 315 310 308 310 311 296 242 221 216 214 214 215 215 215 216 217 218 218 216 213 210 208 206 206 205 205 205 206 207 208 210 212 214 215 214 214
336 327 316 306 299 295 290 278 248 225 217 215 214 214 214 214 215 217 218 218 217 214 211 208 206 205 204 204 204 205 206 207 208 211 213 214 215 215
343 336 325 311 297 287 280 270 253 233 221 217 216 215 214 214 214 215 217 218 217 214 210 208 205 204 203 203 203 204 205 206 207 209 212 213 215 215
351 346 338 325 306 290 278 268 256 240 225 219 217 215 214 214 214 215 217 218 216 214 210 208 205 203 202 202 202 203 204 205 207 208 211 213 214 216
358 355 348 339 323 303 285 270 258 243 227 219 218 216 215 214 213 214 217 218 216 213 210 207 205 203 201 202 201 202 203 205 206 208 210 214 216 217
3 1 357 351 341 324 301 279 261 245 229 220 217 217 215 214 213 214 216 218 216 212 209 206 205 203 201 201 201 201 202 204 205 207 210 213 216 219
6 6 4 1 355 344 326 297 271 248 231 221 217 215 215 214 213 214 216 218 216 211 207 205 204 203 200 201 201 200 202 203 204 205 208 211 215 218
8 8 8 7 3 357 345 326 293 258 235 222 215 213 213 212 213 214 215 217 215 209 205 203 202 202 200 200 201 200 201 203 203 204 206 209 212 216
9 10 10 10 8 4 359 349 327 278 239 222 214 210 209 210 211 213 215 215 212 206 202 201 200 201 199 200 201 200 201 202 203 204 206 208 212 216
9 11 11 11 11 10 6 1 349 315 248 223 212 206 205 207 209 212 213 212 208 202 198 197 198 199 199 199 201 201 201 202 202 203 205 207 211 216
10 12 13 13 13 14 12 9 4 348 273 221 207 201 200 202 204 208 209 207 203 198 195 194 196 197 198 199 201 202 201 201 202 202 204 206 209 213
8 10 12 14 15 16 16 14 11 4 338 225 206 199 196 196 198 201 201 199 197 193 191 191 193 195 196 198 200 202 202 202 202 202 203 205 207 211
8 9 11 13 15 16 17 18 16 14 8 241 201 195 194 193 193 193 192 191 190 189 187 188 190 193 194 196 199 201 203 203 202 202 203 204 206 209
9 10 11 13 14 16 17 19 21 21 22 32 191 192 191 190 188 186 185 184 184 184 184 185 188 190 192 194 197 200 202 203 203 203 203 203 205 206
12 12 13 14 15 16 18 20 23 25 28 40 123 178 184 184 182 180 178 177 179 181 181 182 185 188 191 192 195 198 202 204 204 203 204 205 206 204
13 14 14 14 15 16 18 20 23 27 34 45 79 145 168 174 174 173 172 171 174 177 178 179 182 186 190 192 193 196 200 202 203 204 206 207 208 207
14 16 16 15 15 17 19 21 23 28 38 51 76 117 151 164 169 170 169 169 171 173 175 177 182 185 188 190 191 194 199 202 204 205 206 208 208 209
14 16 17 17 17 19 21 24 27 32 42 56 77 110 139 157 164 167 168 169 169 171 174 177 180 184 187 189 191 193 198 201 203 206 208 210 212 212
14 15 16 17 18 19 22 27 32 38 48 62 81 109 134 151 161 165 168 169 170 172 174 177 180 182 183 185 188 191 194 197 199 202 206 210 212 214
13 14 15 16 18 19 22 27 34 42 53 68 86 110 133 148 158 164 167 168 170 173 176 179 181 182 184 185 186 188 192 194 197 201 205 207 211 214
12 14 15 16 17 19 21 25 33 45 58 74 91 113 134 148 156 163 167 169 171 173 176 180 182 183 184 185 186 187 189 191 194 197 202 205 208 209
11 13 15 16 17 18 20 23 30 45 65 85 103 121 138 150 158 162 167 169 172 175 178 180 182 185 186 187 187 187 187 189 190 192 196 200 203 207
10 12 14 16 17 19 20 21 23 38 79 109 123 137 148 156 162 166 168 171 173 176 179 181 184 186 187 188 188 189 190 191 193 194 194 197 201 204
Height
5301 5295 5290 5286 5282 5279 5276 5273 5273 5275 5281 5289 5299 5311 5325 5341 5357 5370 5384 5398 5415 5435 5459 5485 5511 5537 5562 5587 5610 5631 5651 5669 5685 5700 5714 5727 5738 5749
5297 5290 5284 5280 5278 5275 5273 5271 5270 5271 5276 5282 5291 5303 5316 5332 5346 5360 5373 5386 5401 5420 5442 5467 5493 5519 5544 5569 5593 5615 5635 5654 5672 5688 5703 5716 5728 5739
5294 5286 5280 5275 5272 5271 5270 5269 5268 5269 5272 5278 5286 5296 5309 5323 5337 5351 5362 5374 5388 5405 5426 5449 5475 5501 5527 5552 5577 5600 5621 5640 5659 5676 5691 5705 5717 5729
5293 5284 5276 5271 5268 5266 5266 5265 5265 5266 5269 5274 5280 5290 5302 5315 5329 5342 5354 5364 5377 5392 5412 5434 5460 5486 5512 5537 5561 5585 5607 5627 5646 5664 5680 5694 5707 5717
5293 5283 5276 5270 5265 5263 5262 5262 5262 5263 5266 5270 5276 5284 5295 5308 5322 5334 5346 5356 5368 5381 5400 5422 5446 5472 5498 5522 5547 5570 5593 5615 5635 5653 5667 5682 5696 5708
5295 5285 5277 5270 5265 5262 5260 5259 5260 5261 5263 5266 5272 5279 5289 5301 5314 5327 5338 5349 5359 5372 5389 5410 5434 5459 5485 5510 5536 5559 5581 5601 5621 5640 5657 5672 5686 5698
5298 5288 5279 5272 5266 5262 5259 5258 5258 5259 5260 5263 5268 5275 5284 5295 5307 5319 5331 5341 5351 5362 5379 5400 5424 5450 5475 5499 5521 5545 5568 5589 5609 5628 5646 5662 5676 5688
5301 5292 5283 5275 5269 5264 5260 5257 5257 5257 5259 5261 5266 5272 5280 5290 5301 5312 5323 5333 5344 5356 5372 5392 5414 5439 5465 5489 5511 5534 5556 5578 5599 5618 5635 5652 5666 5678
5306 5296 5288 5280 5273 5267 5262 5259 5257 5256 5257 5260 5263 5269 5276 5285 5295 5306 5316 5326 5337 5348 5364 5385 5407 5432 5456 5480 5502 5524 5546 5567 5588 5608 5625 5641 5656 5668
5311 5302 5293 5285 5277 5271 5266 5261 5258 5257 5257 5258 5261 5266 5272 5280 5290 5300 5310 5320 5330 5341 5357 5379 5400 5425 5449 5472 5493 5515 5536 5557 5578 5598 5615 5631 5646 5659
5315 5306 5298 5290 5282 5275 5269 5265 5261 5259 5258 5258 5260 5264 5269 5276 5284 5294 5304 5314 5324 5336 5352 5372 5394 5418 5442 5464 5486 5507 5528 5548 5568 5588 5606 5622 5637 5650
5318 5310 5302 5294 5287 5280 5274 5268 5264 5261 5259 5259 5260 5263 5267 5273 5281 5289 5299 5309 5319 5332 5349 5369 5389 5411 5436 5457 5478 5499 5519 5539 5559 5579 5597 5614 5628 5641
5322 5314 5306 5298 5291 5285 5278 5272 5268 5264 5261 5260 5261 5263 5267 5272 5278 5286 5296 5306 5317 5330 5347 5365 5385 5406 5430 5452 5472 5493 5512 5531 5552 5570 5588 5605 5620 5634
5325 5318 5310 5303 5296 5289 5283 5277 5272 5267 5264 5262 5262 5264 5267 5272 5278 5285 5295 5305 5317 5329 5345 5362 5381 5403 5425 5447 5467 5487 5506 5524 5544 5563 5580 5596 5611 5624
5329 5321 5314 5307 5301 5294 5288 5282 5276 5272 5268 5266 5265 5266 5269 5273 5279 5286 5296 5307 5318 5330 5345 5362 5381 5401 5422 5442 5461 5482 5500 5517 5536 5555 5571 5587 5602 5616
5334 5325 5317 5311 5305 5299 5293 5288 5282 5277 5273 5270 5269 5269 5272 5276 5282 5290 5299 5309 5320 5332 5347 5363 5380 5399 5420 5439 5458 5477 5494 5511 5529 5548 5564 5580 5594 5608
5338 5329 5322 5316 5310 5305 5299 5294 5288 5284 5280 5277 5275 5275 5277 5281 5287 5294 5303 5312 5323 5335 5349 5365 5380 5397 5416 5436 5455 5472 5489 5505 5523 5540 5557 5571 5585 5598
5343 5335 5327 5320 5315 5309 5305 5300 5295 5291 5287 5284 5283 5282 5284 5288 5293 5300 5308 5317 5327 5339 5352 5365 5380 5396 5415 5434 5452 5469 5484 5501 5518 5534 5550 5565 5577 5590
5347 5339 5332 5325 5319 5314 5310 5306 5302 5298 5295 5292 5291 5291 5292 5295 5300 5306 5314 5322 5332 5342 5354 5366 5381 5396 5414 5432 5448 5465 5481 5496 5512 5527 5543 5558 5573 5586
5352 5344 5337 5330 5324 5318 5314 5311 5308 5305 5302 5300 5299 5299 5301 5303 5308 5313 5320 5328 5337 5346 5357 5369 5382 5396 5412 5429 5446 5462 5476 5492 5507 5521 5536 5550 5565 5579
5356 5349 5341 5334 5328 5323 5318 5315 5313 5311 5309 5308 5307 5307 5309 5312 5316 5320 5327 5334 5342 5351 5361 5372 5383 5397 5411 5427 5443 5458 5473 5487 5501 5516 5530 5544 5557 5570
5360 5353 5346 5339 5332 5327 5322 5319 5317 5315 5315 5314 5314 5314 5316 5319 5322 5327 5333 5339 5346 5354 5363 5373 5384 5397 5410 5425 5439 5453 5468 5482 5496 5510 5525 5539 5552 5565
5363 5356 5350 5343 5337 5331 5326 5322 5320 5319 5318 5318 5319 5320 5322 5325 5328 5333 5338 5344 5350 5358 5366 5375 5385 5396 5409 5422 5435 5449 5463 5477 5490 5504 5517 5531 5544 5558